Location: Zagreb
(45.8000°N, 16.0000°E)
Time: 15:17:20
(UTC+02:00)

Transit 2A - Pass Details

Date: 19 August 2022
Orbit: 601 x 956 km, 66.7° (Epoch: 25 September)

Event Time Altitude Azimuth Distance (km) Brightness Sun altitude
Rises 09:28:46 0° 171° (S) 3,144 9.5 34.7°
Reaches altitude 10° 09:31:48 10° 154° (SSE) 2,159 9.1 35.2°
Maximum altitude 09:35:09 19° 110° (ESE) 1,590 9.5 35.8°
Drops below altitude 10° 09:38:21 10° 66° (ENE) 2,044 8.9 36.3°
Sets 09:41:06 0° 48° (NE) 2,916 9.3 36.8°
